Find Starlink 3297

NORAD ID: 50159 Int'l Des: 2021-125 Owner: SPXS Country: US Constellation: starlink operational
LEOCIRCULAR

Live Position

Loading 3D Globe...

About Starlink 3297

Description loading...

Upcoming Passes

Passes for default location (London). Set your location on the main map for personalized predictions.

Altitude History

Loading altitude history...

Two-Line Element Set

1 50159U 21125D 26126.85419218 -.00000531 00000-0 -15289-4 0 9996
2 50159 53.2182 358.0167 0001472 100.4166 259.6992 15.08831849245230
Epoch: May 6, 2026 • Age: 6 hours

Current Status

Altitude 549.0 km
Velocity 7.59 km/s
Sub-Earth Point -28.38°S, 67.72°E
Launch Date Dec 18, 2021
Age 4.3 years
Type internet

Technical Details

Classification Payload
Mass 290.00 kg
Dry Mass 270.00 kg
Total Mass 290.00 kg
Length 0.20 m
Diameter 2.80 m
Span 9.00 m
Shape Box + pan
Manufacturer SPXS
Bus Type Starlink
Phase Status In Orbit
Owner/State SPXS/US

Most Searched